Regional Weather Roundup
Issued by NWS

Home | Current Version | Previous Version | Graphics & Text | Print | Product List | Glossary On
Versions: 1 2 3 4 5 6 7 8 9 10 11 12 13 14 15 16 17 18 19 20 21 22 23 24 25 26 27 28 29 30 31 32 33 34 35 36 37 38 39 40 41 42 43 44 45 46 47 48 49 50
000
ASUS45 KTFX 301110
RWRMT
MONTANA REGIONAL WEATHER ROUNDUP
NATIONAL WEATHER SERVICE GREAT FALLS MT
500 AM MDT MON MAY 30 2016

NOTE: "FAIR" INDICATES FEW OR NO CLOUDS BELOW 12000 FEET WITH NO
SIGNIFICANT WEATHER AND/OR OBSTRUCTIONS TO VISIBILITY.

MTZ001>007-043-301200-
WEST OF THE DIVIDE

CITY           SKY/WX    TMP DP  RH WIND       PRES   REMARKS
KALISPELL      MOCLDY    43  43 100 N5        30.06R
MISSOULA       CLOUDY    51  44  77 MISG      30.08R
BUTTE          CLEAR     38  34  85 CALM      30.10R
MULLAN PASS    CLEAR     35  31  85 W5        30.11S
ANACONDA         N/A     45  37  76 CALM      30.09S
DEER LODGE       N/A     45  41  87 CALM      30.09S
EUREKA           N/A     46  43  87 CALM      30.10R
HAMILTON         N/A     48  43  81 CALM      30.10R
LIBBY            N/A     39  37  93 SE3       30.12R
$$

MTZ008-052>055-301200-
SOUTHWEST MONTANA

CITY           SKY/WX    TMP DP  RH WIND       PRES   REMARKS
BOZEMAN        MOCLDY    48  43  82 CALM      30.05R
DILLON         PTCLDY    46  35  65 S7        30.07R
W YELLOWSTONE  CLOUDY    39  37  93 CALM      30.11R
ENNIS          CLOUDY    46  37  71 SE7       30.13R
$$

MTZ009-010-012-014-046-048-049-054-301200-
EAST SLOPES AND CENTRAL MONTANA

CITY           SKY/WX    TMP DP  RH WIND       PRES   REMARKS
CUT BANK       CLOUDY    42  40  92 NW12      30.02R
GREAT FALLS    CLEAR     47  39  74 NW10      30.00R
MALMSTROM AFB  PTCLDY    52  40  63 W14G21    30.00R
HELENA         PTCLDY    51  40  65 CALM      30.02S
CHOTEAU          N/A     48  41  76 N16       30.03R
$$

MTZ011-013-016-021-045-047-050-051-301200-
NORTH CENTRAL MONTANA

CITY           SKY/WX    TMP DP  RH WIND       PRES   REMARKS
HAVRE          LGT RAIN  51  44  77 W10       29.94R
LEWISTOWN      MOCLDY    49  44  83 S6        29.99R
N BAR RANCH    MOCLDY    48  45  87 W7        30.01F
CHINOOK          N/A     55  45  67 W13       29.92R
$$

MTZ017>020-022>027-061-062-301200-
NORTHEAST MONTANA

CITY           SKY/WX    TMP DP  RH WIND       PRES   REMARKS
GLASGOW        CLOUDY    54  45  71 E5        29.90S
JORDAN           N/A     57  46  66 N8        29.93R
SIDNEY         CLOUDY    49  44  83 CALM      29.89S
WOLF POINT     CLOUDY    56  43  61 SW6       29.91S
POPLAR           N/A     50  45  81 CALM      29.93R
$$

MTZ028>42-056>058-301200-
SOUTHCENTRAL AND SOUTHEAST MONTANA

CITY           SKY/WX    TMP DP  RH WIND       PRES   REMARKS
BAKER          CLOUDY    55  49  80 S6        29.92S
BILLINGS       LGT RAIN  53  49  86 NE6       29.97F
LIVINGSTON     CLOUDY    53  40  61 W5        30.03R
MILES CITY     LGT RAIN  56  49  77 N16       29.88F
FORSYTH          N/A     55  52  88 N6        29.89R
$$

REGIONAL REPORTS...DAKOTAS

CITY           SKY/WX    TMP DP  RH WIND       PRES   REMARKS
WILLISTON      CLOUDY    46  42  86 NE5       29.90S
MINOT          CLEAR     51  46  83 S3        29.89S
DICKINSON      CLEAR     46  43  89 S5        29.90S
BEACH            N/A     50  50 100 CALM      29.94S
CROSBY           N/A     50  48  93 S10       29.92S
WATFORD CITY     N/A     43  41  93 CALM      29.91S
BISMARCK       CLEAR     52  51  97 NE3       29.94R
GRAND FORKS    PTCLDY    50  45  83 S5        29.91R
FARGO          CLEAR     54  47  77 E6        29.93S
BUFFALO SD       N/A     54  50  86 SE10      29.83F
RAPID CITY     CLOUDY    46  45  96 CALM      29.90F
$$

REGIONAL REPORTS...WYOMING/IDAHO/WASHINGTON

CITY           SKY/WX    TMP DP  RH WIND       PRES   REMARKS
GILLETTE       PTCLDY    55  41  59 S10       29.90R
SHERIDAN       CLOUDY    54  44  69 NW14G20   29.93R
BUFFALO WY     CLOUDY    60  38  43 N12G28    29.95R
CODY           CLOUDY    54  37  54 W15G21    30.02R
YELLOWSTONE LA   N/A     37  35  92 CALM      30.17S
IDAHO FALLS    PTCLDY    49  42  77 SW9       30.06R
SALMON         CLEAR     45  36  70 CALM      30.08R
BOISE          CLEAR     54  36  50 W9        30.09R
SPOKANE        CLEAR     43  35  73 W6        30.14R
$$

REGIONAL REPORTS...ALBERTA

CITY           SKY/WX    TMP DP  RH WIND       PRES   REMARKS
EDMONTON       CLOUDY    45  39  81 W7        30.05R
CALGARY        LGT RAIN  43  39  87 NW14      30.05R
LETHBRIDGE     LGT RAIN  43  41  93 NW23G29   30.03R FOG
MEDICINE HAT   MOCLDY    48  45  87 W13       29.93R
WATERTON GATE    N/A     39  37  93 SE2         N/A
MILK RIVER       N/A     43  41  93 NW15        N/A
$$

REGIONAL REPORTS...SASKATCHEWAN

CITY           SKY/WX    TMP DP  RH WIND       PRES   REMARKS
SWIFT CURRENT  CLEAR     48  43  81 SW10      29.86R
REGINA         PTCLDY    46  41  81 E6        29.87R
SASKATOON      FOG       48  48 100 E15G22    29.93S VSB 3/4
CYPRESS HILLS    N/A     46  36  66 NW5         N/A
VAL MARIE        N/A     43  39  87 E3          N/A
ROCKGLEN         N/A     54  41  62 S6          N/A
ASSINIBOIA       N/A     48  48 100 NW12        N/A
$$



USA.gov is the U.S. government's official web portal to all federal, state and local government web resources and services.